Location: Colossi of Memnon
(25.7167°N, 32.6167°E)
Time: 20:15:49
(UTC+00:00)

Milstar 3 Cent rocket - Pass Details

Date: 05 March 2021
Orbit: 706 x 5147 km, 28.3° (Epoch: 20 April)

Event Time Altitude Azimuth Distance (km) Brightness Sun altitude
Exits shadow 02:20:17 71° 332° (NNW) 761 1.8 -25.3°
Maximum altitude 02:20:27 72° 352° (N) 754 1.8 -25.2°
Drops below altitude 10° 02:25:05 10° 77° (ENE) 2,204 5.4 -24.2°
Sets 02:27:33 0° 80° (E) 3,259 6.7 -23.6°
